TimeCDT,TemperatureF,Dew PointF,Humidity,Sea Level PressureIn,VisibilityMPH,Wind Direction,Wind SpeedMPH,Gust SpeedMPH,PrecipitationIn,Events,Conditions,WindDirDegrees,DateUTC
12:15 AM,43.7,43.7,100,30.02,0.2,Calm,Calm,-,N/A,Fog,Fog,0,2013-09-25 05:15:00
12:35 AM,43.9,43.9,100,30.02,0.5,Calm,Calm,-,N/A,Fog,Fog,0,2013-09-25 05:35:00
12:55 AM,43.0,43.0,100,30.02,0.5,Calm,Calm,-,N/A,Fog,Fog,0,2013-09-25 05:55:00
1:15 AM,42.1,42.1,100,30.02,-9999.0,Calm,Calm,-,N/A,,Mostly Cloudy,0,2013-09-25 06:15:00
1:35 AM,41.2,41.2,100,30.02,-9999.0,Calm,Calm,-,N/A,,Overcast,0,2013-09-25 06:35:00
1:55 AM,41.7,41.7,100,30.02,0.2,Calm,Calm,-,N/A,Fog,Fog,0,2013-09-25 06:55:00
2:35 AM,41.0,41.0,100,30.02,0.5,Calm,Calm,-,N/A,Fog,Fog,0,2013-09-25 07:35:00
2:55 AM,40.6,40.6,100,30.02,0.2,Calm,Calm,-,N/A,Fog,Fog,0,2013-09-25 07:55:00
3:15 AM,41.5,41.5,100,30.02,0.2,Calm,Calm,-,N/A,Fog,Fog,0,2013-09-25 08:15:00
3:35 AM,41.2,41.2,100,30.02,0.2,Calm,Calm,-,N/A,Fog,Fog,0,2013-09-25 08:35:00
3:55 AM,40.6,40.6,100,30.03,0.2,Calm,Calm,-,N/A,Fog,Fog,0,2013-09-25 08:55:00
4:15 AM,40.3,40.3,100,30.03,0.2,Calm,Calm,-,N/A,Fog,Fog,0,2013-09-25 09:15:00
4:35 AM,40.1,40.1,100,30.03,0.2,Calm,Calm,-,N/A,Fog,Fog,0,2013-09-25 09:35:00
4:55 AM,40.3,40.3,100,30.03,0.2,Calm,Calm,-,N/A,Fog,Fog,0,2013-09-25 09:55:00
5:15 AM,40.5,40.5,100,30.03,0.2,Calm,Calm,-,N/A,Fog,Fog,0,2013-09-25 10:15:00
5:35 AM,41.2,41.2,100,30.03,0.2,Calm,Calm,-,N/A,Fog,Fog,0,2013-09-25 10:35:00
5:55 AM,41.0,41.0,100,30.03,0.2,Calm,Calm,-,N/A,Fog,Fog,0,2013-09-25 10:55:00
6:15 AM,40.5,40.5,100,30.03,0.2,Calm,Calm,-,N/A,Fog,Fog,0,2013-09-25 11:15:00
6:35 AM,40.1,40.1,100,30.03,0.2,Calm,Calm,-,N/A,Fog,Fog,0,2013-09-25 11:35:00
6:55 AM,39.6,39.6,100,30.04,0.2,Calm,Calm,-,N/A,Fog,Fog,0,2013-09-25 11:55:00
7:15 AM,40.1,40.1,100,30.04,0.2,Calm,Calm,-,N/A,Fog,Fog,0,2013-09-25 12:15:00
7:35 AM,40.6,40.6,100,30.04,0.2,Calm,Calm,-,N/A,Fog,Fog,0,2013-09-25 12:35:00
7:55 AM,42.1,42.1,100,30.04,0.2,Calm,Calm,-,N/A,Fog,Fog,0,2013-09-25 12:55:00
8:15 AM,43.0,43.0,100,30.04,0.2,Calm,Calm,-,N/A,Fog,Fog,0,2013-09-25 13:15:00
8:35 AM,45.1,45.1,100,30.04,0.2,Calm,Calm,-,N/A,Fog,Fog,0,2013-09-25 13:35:00
8:55 AM,46.4,46.4,100,30.04,0.2,Calm,Calm,-,N/A,Fog,Fog,0,2013-09-25 13:55:00
9:15 AM,47.5,47.5,100,30.05,0.2,Calm,Calm,-,N/A,Fog,Fog,0,2013-09-25 14:15:00
9:35 AM,50.0,50.0,100,30.04,0.2,Calm,Calm,-,N/A,Fog,Fog,0,2013-09-25 14:35:00
9:55 AM,51.4,51.4,100,30.04,2.0,Calm,Calm,-,N/A,,Overcast,0,2013-09-25 14:55:00
10:15 AM,52.2,52.2,100,30.04,10.0,Calm,Calm,-,N/A,,Scattered Clouds,0,2013-09-25 15:15:00
10:35 AM,54.3,54.3,100,30.04,10.0,Calm,Calm,-,N/A,,Clear,0,2013-09-25 15:35:00
10:55 AM,54.5,54.5,100,30.04,10.0,Calm,Calm,-,N/A,,Clear,0,2013-09-25 15:55:00
11:15 AM,59.9,52.5,77,30.04,10.0,Calm,Calm,-,N/A,,Clear,0,2013-09-25 16:15:00
11:35 AM,61.9,49.6,64,30.03,10.0,NE,3.5,-,N/A,,Clear,50,2013-09-25 16:35:00
11:55 AM,63.3,49.5,61,30.03,10.0,ENE,5.8,-,N/A,,Clear,60,2013-09-25 16:55:00
12:15 PM,64.2,49.5,59,30.03,10.0,Calm,Calm,-,N/A,,Clear,0,2013-09-25 17:15:00
12:35 PM,64.8,48.9,56,30.03,10.0,East,4.6,-,N/A,,Scattered Clouds,100,2013-09-25 17:35:00
1:15 PM,65.5,47.5,52,30.01,10.0,SE,3.5,-,N/A,,Clear,140,2013-09-25 18:15:00
1:35 PM,66.2,47.8,52,30.01,10.0,Calm,Calm,-,N/A,,Clear,0,2013-09-25 18:35:00
1:55 PM,67.1,46.9,48,30.01,10.0,East,3.5,-,N/A,,Clear,80,2013-09-25 18:55:00
2:15 PM,67.8,46.6,46,30.00,10.0,ESE,4.6,-,N/A,,Clear,110,2013-09-25 19:15:00
2:35 PM,68.9,47.3,46,29.99,10.0,East,8.1,-,N/A,,Clear,100,2013-09-25 19:35:00
2:55 PM,69.3,46.2,44,29.99,10.0,South,3.5,-,N/A,,Clear,180,2013-09-25 19:55:00
3:15 PM,69.6,44.4,40,29.99,10.0,East,3.5,-,N/A,,Clear,100,2013-09-25 20:15:00
3:55 PM,69.1,41.2,36,29.99,10.0,Calm,Calm,-,N/A,,Clear,0,2013-09-25 20:55:00
4:15 PM,69.4,42.4,38,29.98,10.0,SSE,5.8,-,N/A,,Clear,150,2013-09-25 21:15:00
4:35 PM,69.1,41.4,37,29.99,10.0,ESE,3.5,-,N/A,,Clear,120,2013-09-25 21:35:00
4:55 PM,68.4,43.7,41,29.99,10.0,Calm,Calm,-,N/A,,Clear,0,2013-09-25 21:55:00
5:15 PM,68.2,44.2,42,29.99,10.0,South,4.6,-,N/A,,Clear,170,2013-09-25 22:15:00
5:35 PM,68.0,43.7,41,30.00,10.0,Calm,Calm,-,N/A,,Clear,0,2013-09-25 22:35:00
5:55 PM,66.7,45.3,46,30.00,10.0,Calm,Calm,-,N/A,,Clear,0,2013-09-25 22:55:00
6:15 PM,65.7,45.1,47,29.99,10.0,Calm,Calm,-,N/A,,Clear,0,2013-09-25 23:15:00
6:35 PM,63.7,46.4,53,29.98,10.0,SE,3.5,-,N/A,,Clear,130,2013-09-25 23:35:00
6:55 PM,61.0,47.1,60,29.98,10.0,SE,3.5,-,N/A,,Clear,140,2013-09-25 23:55:00
7:15 PM,60.4,47.5,62,29.98,10.0,SE,4.6,-,N/A,,Clear,130,2013-09-26 00:15:00
7:35 PM,59.4,47.8,66,29.99,10.0,SE,3.5,-,N/A,,Clear,140,2013-09-26 00:35:00
7:55 PM,54.7,48.0,78,29.99,10.0,Calm,Calm,-,N/A,,Clear,0,2013-09-26 00:55:00
8:15 PM,51.1,49.5,94,30.00,10.0,Calm,Calm,-,N/A,,Clear,0,2013-09-26 01:15:00
8:35 PM,49.8,48.4,95,30.00,10.0,Calm,Calm,-,N/A,,Clear,0,2013-09-26 01:35:00
8:55 PM,49.6,47.3,92,30.00,10.0,Calm,Calm,-,N/A,,Clear,0,2013-09-26 01:55:00
9:15 PM,48.2,48.0,99,30.01,10.0,Calm,Calm,-,N/A,,Clear,0,2013-09-26 02:15:00
9:35 PM,47.5,47.5,100,30.01,10.0,Calm,Calm,-,N/A,,Clear,0,2013-09-26 02:35:00
9:55 PM,46.2,46.2,100,30.01,1.0,Calm,Calm,-,N/A,,Mist,0,2013-09-26 02:55:00
10:15 PM,45.5,45.5,100,30.02,0.2,Calm,Calm,-,N/A,Fog,Fog,0,2013-09-26 03:15:00
10:35 PM,45.3,45.3,100,30.02,0.8,Calm,Calm,-,N/A,,Mostly Cloudy,0,2013-09-26 03:35:00
10:55 PM,43.5,43.5,100,30.02,0.5,Calm,Calm,-,N/A,Fog,Fog,0,2013-09-26 03:55:00
11:15 PM,42.1,42.1,100,30.02,0.2,Calm,Calm,-,N/A,Fog,Fog,0,2013-09-26 04:15:00
11:35 PM,43.7,43.7,100,30.03,0.8,Calm,Calm,-,N/A,,Mostly Cloudy,0,2013-09-26 04:35:00
11:55 PM,42.4,42.4,100,30.03,1.0,Calm,Calm,-,N/A,,Mostly Cloudy,0,2013-09-26 04:55:00